H1 CPF  2  NER 2023 12  8  9  342 01 glonass143
H2  2007501 9143    46805 2023 12  8  0  0  0 2023 12 11 23 45  0   900 1 1  0 0 0 1
H9
10 0 60287  41400.00000  0 -21676433.701  12979029.617   3465664.059
10 0 60287  42300.00000  0 -21806280.965  13217560.321    263455.072
10 0 60287  43200.00000  0 -21587593.311  13249778.137  -2943873.629
10 0 60287  44100.00000  0 -21053671.505  13031547.294  -6093953.043
10 0 60287  45000.00000  0 -20247832.849  12527575.126  -9125520.777
10 0 60287  45900.00000  0 -19221478.158  11713137.400 -11979618.517
10 0 60287  46800.00000  0 -18031836.418  10575366.762 -14600744.109
10 0 60287  47700.00000  0 -16739482.925   9114048.726 -16937935.150
10 0 60287  48600.00000  0 -15405736.197   7341890.498 -18945762.589
10 0 60287  49500.00000  0 -14090043.808   5284250.246 -20585214.868
10 0 60287  50400.00000  0 -12847467.549   2978337.236 -21824455.409
10 0 60287  51300.00000  0 -11726373.746    471915.497 -22639439.052
10 0 60287  52200.00000  0 -10766425.648  -2178435.592 -23014375.858
10 0 60287  53100.00000  0  -9996961.779  -4909431.855 -22942033.763
10 0 60287  54000.00000  0  -9435827.721  -7653478.709 -22423874.715
10 0 60287  54900.00000  0  -9088709.563 -10341250.379 -21470022.045
10 0 60287  55800.00000  0  -8948996.139 -12904347.222 -20099060.009
10 0 60287  56700.00000  0  -8998174.924 -15277921.302 -18337669.576
10 0 60287  57600.00000  0  -9206744.066 -17403161.684 -16220107.537
10 0 60287  58500.00000  0  -9535601.392 -19229536.681 -13787539.021
10 0 60287  59400.00000  0  -9937851.179 -20716700.417 -11087236.279
10 0 60287  60300.00000  0 -10360951.930 -21835985.022  -8171659.204
10 0 60287  61200.00000  0 -10749114.038 -22571416.989  -5097435.423
10 0 60287  62100.00000  0 -11045845.689 -22920216.169  -1924259.837
10 0 60287  63000.00000  0 -11196539.056 -22892757.446   1286264.916
10 0 60287  63900.00000  0 -11150987.210 -22511997.694   4471824.320
10 0 60287  64800.00000  0 -10865725.051 -21812392.993   7570600.751
10 0 60287  65700.00000  0 -10306095.049 -20838352.403  10522471.552
10 0 60287  66600.00000  0  -9447950.201 -19642293.925  13270173.050
10 0 60287  67500.00000  0  -8278921.922 -18282384.792  15760408.046
10 0 60287  68400.00000  0  -6799198.825 -16820061.208  17944875.555
10 0 60287  69300.00000  0  -5021782.868 -15317431.650  19781203.213
10 0 60287  70200.00000  0  -2972211.114 -13834672.396  21233764.841
10 0 60287  71100.00000  0   -687753.506 -12427524.001  22274367.904
10 0 60287  72000.00000  0   1783881.141 -11144993.003  22882798.117
10 0 60287  72900.00000  0   4386278.490 -10027354.440  23047211.101
10 0 60287  73800.00000  0   7056420.736  -9104538.097  22764363.786
10 0 60287  74700.00000  0   9727071.418  -8394965.479  22039681.069
10 0 60287  75600.00000  0  12329345.294  -7904885.714  20887156.213
10 0 60287  76500.00000  0  14795357.669  -7628237.908  19329086.363
10 0 60287  77400.00000  0  17060844.040  -7547045.576  17395647.607
10 0 60287  78300.00000  0  19067641.744  -7632326.520  15124316.967
10 0 60287  79200.00000  0  20765930.725  -7845479.927  12559151.628
10 0 60287  80100.00000  0  22116140.099  -8140092.294   9749938.657
10 0 60287  81000.00000  0  23090440.893  -8464085.932   6751231.095
10 0 60287  81900.00000  0  23673762.386  -8762119.122   3621288.811
10 0 60287  82800.00000  0  23864289.305  -8978136.015    420944.718
10 0 60287  83700.00000  0  23673418.961  -9057957.744  -2787581.351
10 0 60287  84600.00000  0  23125180.168  -8951804.220  -5941897.513
10 0 60287  85500.00000  0  22255138.610  -8616638.768  -8980659.071
10 0 60288      0.00000  0  21108835.241  -8018235.302 -11844767.342
10 0 60288    900.00000  0  19739823.309  -7132878.966 -14478525.535
10 0 60288   1800.00000  0  18207388.853  -5948628.006 -16830724.666
10 0 60288   2700.00000  0  16574049.122  -4466081.369 -18855643.125
10 0 60288   3600.00000  0  14902936.124  -2698619.274 -20513936.343
10 0 60288   4500.00000  0  13255175.039   -672105.331 -21773400.861
10 0 60288   5400.00000  0  11687367.745   1575938.216 -22609597.970
10 0 60288   6300.00000  0  10249286.902   3997648.464 -23006325.209
10 0 60288   7200.00000  0   8981876.828   6536578.711 -22955927.048
10 0 60288   8100.00000  0   7915644.271   9129821.632 -22459439.236
10 0 60288   9000.00000  0   7069505.555  11710410.912 -21526564.416
10 0 60288   9900.00000  0   6450137.387  14209901.929 -20175479.799
10 0 60288  10800.00000  0   6051857.352  16561024.620 -18432480.806
10 0 60288  11700.00000  0   5857037.925  18700298.677 -16331467.612
10 0 60288  12600.00000  0   5837035.455  20570502.646 -13913284.559
10 0 60288  13500.00000  0   5953593.976  22122894.615 -11224925.119
10 0 60288  14400.00000  0   6160663.752  23319092.408  -8318617.806
10 0 60288  15300.00000  0   6406557.078  24132535.357  -5250810.740
10 0 60288  16200.00000  0   6636349.620  24549467.222  -2081074.652
10 0 60288  17100.00000  0   6794425.298  24569399.794   1129054.255
10 0 60288  18000.00000  0   6827056.655  24205038.506   4317268.890
10 0 60288  18900.00000  0   6684911.236  23481673.904   7421699.924
10 0 60288  19800.00000  0   6325377.671  22436065.176  10382114.897
10 0 60288  20700.00000  0   5714612.810  21114863.165  13141084.390
10 0 60288  21600.00000  0   4829223.111  19572639.453  15645092.770
10 0 60288  22500.00000  0   3657508.818  17869604.363  17845572.188
10 0 60288  23400.00000  0   2200217.915  16069109.526  19699840.167
10 0 60288  24300.00000  0    470777.249  14235039.357  21171923.159
10 0 60288  25200.00000  0  -1505009.957  12429200.109  22233250.694
10 0 60288  26100.00000  0  -3689788.846  10708815.065  22863207.236
10 0 60288  27000.00000  0  -6035966.936   9124229.784  23049531.523
10 0 60288  27900.00000  0  -8487464.154   7716922.429  22788555.947
10 0 60288  28800.00000  0 -10981827.526   6517901.522  22085281.337
10 0 60288  29700.00000  0 -13452624.024   5546557.368  20953285.496
10 0 60288  30600.00000  0 -15832013.297   4810014.524  19414466.734
10 0 60288  31500.00000  0 -18053394.289   4303012.001  17498626.652
10 0 60288  32400.00000  0 -20054016.318   4008315.803  15242899.459
10 0 60288  33300.00000  0 -21777446.273   3897646.261  12691037.945
10 0 60288  34200.00000  0 -23175789.087   3933080.896   9892569.251
10 0 60288  35100.00000  0 -24211568.641   4068873.457   6901836.166
10 0 60288  36000.00000  0 -24859190.085   4253612.057   3776942.224
10 0 60288  36900.00000  0 -25105921.922   4432624.682    578621.106
10 0 60288  37800.00000  0 -24952356.278   4550529.695  -2630947.458
10 0 60288  38700.00000  0 -24412327.782   4553822.506  -5789351.725
10 0 60288  39600.00000  0 -23512294.306   4393387.868  -8835167.544
10 0 60288  40500.00000  0 -22290205.727   4026830.286 -11709159.026
10 0 60288  41400.00000  0 -20793908.521   3420522.719 -14355436.144
10 0 60288  42300.00000  0 -19079153.662   2551285.715 -16722546.038
10 0 60288  43200.00000  0 -17207292.037   1407624.877 -18764476.374
10 0 60288  44100.00000  0 -15242754.543     -9526.663 -20441551.019
10 0 60288  45000.00000  0 -13250422.957  -1686593.056 -21721200.645
10 0 60288  45900.00000  0 -11293001.912  -3597677.861 -22578593.546
10 0 60288  46800.00000  0  -9428501.892  -5705410.865 -22997114.826
10 0 60288  47700.00000  0  -7707938.241  -7962284.923 -22968685.132
10 0 60288  48600.00000  0  -6173341.715 -10312427.702 -22493913.250
10 0 60288  49500.00000  0  -4856162.856 -12693735.011 -21582080.005
10 0 60288  50400.00000  0  -3776135.802 -15040277.330 -20250954.117
10 0 60288  51300.00000  0  -2940647.756 -17284879.734 -18526443.741
10 0 60288  52200.00000  0  -2344639.155 -19361768.175 -16442090.514
10 0 60288  53100.00000  0  -1971037.314 -21209172.156 -14038415.892
10 0 60288  54000.00000  0  -1791703.979 -22771775.655 -11362132.378
10 0 60288  54900.00000  0  -1768855.657 -24002914.317  -8465234.858
10 0 60288  55800.00000  0  -1856895.788 -24866427.480  -5403989.683
10 0 60288  56700.00000  0  -2004580.488 -25338087.945  -2237841.170
10 0 60288  57600.00000  0  -2157425.626 -25406550.082    971743.128
10 0 60288  58500.00000  0  -2260252.830 -25073776.991   4162465.737
10 0 60288  59400.00000  0  -2259766.286 -24354929.291   7272407.797
10 0 60288  60300.00000  0  -2107050.933 -23277720.660  10241229.191
10 0 60288  61200.00000  0  -1759886.123 -21881267.559  13011336.893
10 0 60288  62100.00000  0  -1184776.636 -20214481.628  15528998.915
10 0 60288  63000.00000  0   -358614.980 -18334072.256  17745382.532
10 0 60288  63900.00000  0    730095.629 -16302242.860  19617497.005
10 0 60288  64800.00000  0   2080509.711 -14184176.956  21109023.081
10 0 60288  65700.00000  0   3679231.076 -12045418.544  22191013.780
10 0 60288  66600.00000  0   5500637.290  -9949255.518  22842453.475
10 0 60288  67500.00000  0   7507724.825  -7954214.431  23050664.892
10 0 60288  68400.00000  0   9653441.053  -6111770.135  22811556.452
10 0 60288  69300.00000  0  11882449.016  -4464364.931  22129705.191
10 0 60288  70200.00000  0  14133252.881  -3043818.898  21018273.428
10 0 60288  71100.00000  0  16340596.908  -1870196.954  19498760.308
10 0 60288  72000.00000  0  18438039.072   -951179.286  17600592.321
10 0 60288  72900.00000  0  20360592.901   -281960.908  15360559.902
10 0 60288  73800.00000  0  22047327.848    154315.973  12822110.151
10 0 60288  74700.00000  0  23443819.715    385615.329  10034508.605
10 0 60288  75600.00000  0  24504348.561    449586.713   7051885.747
10 0 60288  76500.00000  0  25193751.657    391731.011   3932186.350
10 0 60288  77400.00000  0  25488853.241    263230.566    736042.088
10 0 60288  78300.00000  0  25379410.494    118536.082  -2474410.455
10 0 60288  79200.00000  0  24868535.389     12813.256  -5636742.889
10 0 60288  80100.00000  0  23972574.264      -641.772  -8689454.883
10 0 60288  81000.00000  0  22720449.896    127092.353 -11573176.310
10 0 60288  81900.00000  0  21152493.646    438243.521 -14231827.479
99